STARLINK-11582 [DTC] (62985 NORAD) Tracking and Keplerian Element Data

This shows tracking and keplerian element data for the satellite.

Feedback or suggestion? Click here.




ElementValue
Catalog62985
NameSTARLINK-11582 [DTC]
Epoch Orbit5016
Epoch Day353.71209005
Epoch Year2025
RAAN123.5723
Inclination42.9991
Eccentricity0.0001995
Argument of Perigee275.9695
Mean Anonmoly84.0945
Mean Motion15.70875903
Decay Rate0.00034515
L11 62985U 25031E 25353.71209005 .00034515 00000+0 27094-3 0 9995
L22 62985 42.9991 123.5723 0001995 275.9695 84.0945 15.70875903 50163



Live tracking and technical data element details for STARLINK-11582 [DTC] (NORAD 62985). STARLINK-11582 [DTC] can be tracked NOW for your location showing map with azimuth and elevation plus other details from your city location.







IsCatalogInMostPopularTable: catalog: 62985, numindb: 2
Update: records affected: 1



GetName: 62985 STARLINK-11582 [DTC]

Hit Count: updated at: Sun, 08 Feb 2026 16:54:28 GMT